DW3310 Weather Reports


Display with metric or nautical units.
time (UTC)temp
F
wind
direction
speed
MPH
gust
MPH
rain 1hr
in
rain 24hr
in
rain mn
in
humidity
%
barometer
mb
20260906014606 59 86 3.0 11.0 0.00 0.11 0.11 1 1013.9
20260906013046 59 55 4.0 9.0 0.00 0.11 0.11 1 1013.8
20260906011551 58 72 3.0 8.0 0.00 0.11 0.11 1 1013.9
20260906010038 58 73 2.0 4.0 0.00 0.11 0.11 1 1013.9
20260906004532 58 76 1.0 5.0 0.00 0.11 0.11 1 1013.9
20260906003027 58 71 3.0 9.0 0.00 0.11 0.11 1 1013.6
20260906001522 58 107 1.0 6.0 0.01 0.11 0.11 1 1013.5
20260906000019 58 86 2.0 8.0 0.03 0.11 0.11 1 1013.4
20260905234513 57 123 2.0 6.0 0.03 0.11 0.11 1 1013.3
20260905233011 58 134 3.0 8.0 0.03 0.11 0.11 1 1013.3
20260905231511 58 86 4.0 11.0 0.03 0.10 0.10 1 1013.3
20260905230103 59 80 2.0 4.0 0.01 0.08 0.08 1 1013.0
20260905224605 59 80 1.0 4.0 0.03 0.08 0.08 1 1013.0
20260905223051 60 81 0.0 2.0 0.07 0.08 0.08 1 1012.9
20260905221547 60 81 0.0 0.0 0.07 0.07 0.07 1 1012.9
20260905220042 60 80 0.0 0.0 0.07 0.07 0.07 1 1012.8
20260905214538 61 81 0.0 3.0 0.05 0.05 0.05 6 1012.5
20260905213033 62 69 3.0 8.0 0.01 0.01 0.01 35 1012.4
20260905211528 64 49 3.0 10.0 0.00 0.00 0.00 54 1012.1
20260905210024 64 76 2.0 7.0 0.00 0.00 0.00 53 1011.9
20260905204518 63 126 2.0 8.0 0.00 0.00 0.00 55 1011.8
20260905203014 63 82 3.0 9.0 0.00 0.00 0.00 47 1011.7
20260905201515 64 55 6.0 15.0 0.00 0.00 0.00 46 1011.6
20260905200006 65 59 4.0 13.0 0.00 0.00 0.00 50 1011.3
20260905194604 66 58 5.0 12.0 0.00 0.00 0.00 57 1011.3
20260905193056 66 92 5.0 11.0 0.00 0.00 0.00 59 1011.3
20260905191552 66 64 5.0 14.0 0.00 0.00 0.00 57 1011.3
20260905190053 66 76 8.0 12.0 0.00 0.00 0.00 48 1011.2
20260905184554 67 179 4.0 14.0 0.00 0.00 0.00 51 1011.1
20260905183045 68 92 2.0 13.0 0.00 0.00 0.00 60 1010.9
20260905181534 68 88 6.0 10.0 0.00 0.00 0.00 62 1011.0
20260905180029 68 24 3.0 12.0 0.00 0.00 0.00 61 1011.0
20260905174525 68 24 5.0 12.0 0.00 0.00 0.00 60 1011.0
20260905173022 67 74 4.0 12.0 0.00 0.00 0.00 58 1011.0
20260905171517 66 57 5.0 12.0 0.00 0.00 0.00 57 1011.0
20260905170012 66 41 7.0 13.0 0.00 0.00 0.00 58 1011.1
20260905164508 66 61 7.0 14.0 0.00 0.00 0.00 58 1011.1
20260905163003 66 94 3.0 15.0 0.00 0.00 0.00 52 1011.2
20260905161558 65 82 5.0 14.0 0.00 0.00 0.00 49 1011.3
20260905160057 65 94 5.0 11.0 0.00 0.00 0.00 48 1011.4
20260905154551 65 53 3.0 11.0 0.00 0.00 0.00 52 1011.4
20260905153057 64 69 4.0 12.0 0.00 0.00 0.00 52 1011.2
20260905151544 64 37 4.0 12.0 0.00 0.00 0.00 52 1011.1
20260905150039 65 63 5.0 11.0 0.00 0.00 0.00 54 1011.1
20260905144534 66 78 4.0 8.0 0.00 0.00 0.00 54 1011.0
20260905143034 65 69 3.0 9.0 0.00 0.00 0.00 52 1010.9
20260905141524 65 48 4.0 8.0 0.00 0.00 0.00 53 1010.8
20260905140020 66 79 3.0 7.0 0.00 0.00 0.00 53 1010.7
20260905134522 65 82 3.0 7.0 0.00 0.00 0.00 52 1010.5
20260905133010 65 58 1.0 8.0 0.00 0.00 0.00 41 1010.4
20260905131510 64 100 1.0 5.0 0.00 0.00 0.00 43 1010.3
20260905130002 64 94 2.0 6.0 0.00 0.00 0.00 43 1010.3
20260905124557 64 108 2.0 7.0 0.00 0.00 0.00 33 1010.2
20260905123054 63 82 2.0 5.0 0.00 0.00 0.00 8 1010.1
20260905121552 63 26 0.0 5.0 0.00 0.00 0.00 6 1010.1
20260905120045 63 327 2.0 4.0 0.00 0.00 0.00 21 1010.2
20260905114540 62 295 0.0 5.0 0.00 0.00 0.00 6 1009.9
20260905113036 61 289 0.0 3.0 0.00 0.00 0.00 1 1009.9
20260905111551 61 337 1.0 5.0 0.00 0.00 0.00 1 1009.8
20260905110028 61 336 2.0 7.0 0.00 0.00 0.00 1 1009.5
20260905104522 61 319 2.0 7.0 0.00 0.00 0.00 1 1009.4
20260905103024 61 312 2.0 8.0 0.00 0.00 0.00 1 1009.3
20260905101516 60 329 2.0 6.0 0.00 0.00 0.00 1 1009.3
20260905100015 60 213 2.0 6.0 0.00 0.00 0.00 1 1009.2
20260905094510 60 273 3.0 7.0 0.00 0.00 0.00 1 1009.1
20260905093001 61 254 2.0 9.0 0.00 0.00 0.00 1 1008.9
20260905091557 61 276 2.0 9.0 0.00 0.00 0.00 1 1008.9
20260905090053 61 294 4.0 8.0 0.00 0.00 0.00 1 1008.8
20260905084553 61 297 5.0 10.0 0.00 0.00 0.00 1 1009.0
20260905083045 61 296 3.0 10.0 0.00 0.00 0.00 2 1008.9
20260905081540 62 259 4.0 9.0 0.00 0.00 0.00 6 1008.8
20260905080035 62 306 5.0 14.0 0.00 0.00 0.00 8 1008.8
20260905074531 61 305 5.0 12.0 0.00 0.00 0.00 4 1008.7
20260905073026 61 311 7.0 11.0 0.00 0.00 0.00 3 1008.8
20260905071536 62 309 5.0 11.0 0.00 0.00 0.00 11 1009.0
20260905070016 62 275 5.0 11.0 0.00 0.00 0.00 20 1009.1
20260905064514 62 316 6.0 11.0 0.00 0.00 0.00 27 1009.1
20260905063011 63 301 5.0 12.0 0.00 0.00 0.00 35 1009.1
20260905061511 63 325 3.0 9.0 0.00 0.00 0.00 36 1009.0
20260905060010 63 326 3.0 8.0 0.00 0.00 0.00 36 1009.2
20260905054523 63 27 2.0 11.0 0.00 0.00 0.00 35 1009.2
20260905053004 63 314 6.0 12.0 0.00 0.00 0.00 31 1009.1
20260905051503 63 289 6.0 11.0 0.00 0.00 0.00 34 1009.3
20260905050100 63 292 2.0 12.0 0.00 0.00 0.00 37 1009.4
20260905044558 63 301 5.0 10.0 0.00 0.00 0.00 40 1009.5
20260905043055 64 315 3.0 5.0 0.00 0.00 0.00 42 1009.5
20260905041552 64 341 3.0 8.0 0.00 0.00 0.00 43 1009.3
20260905040049 64 335 3.0 6.0 0.00 0.00 0.00 47 1009.3
20260905034547 64 327 6.0 11.0 0.00 0.00 0.00 49 1009.4
20260905033054 65 360 4.0 10.0 0.00 0.00 0.00 51 1009.5
20260905031543 65 284 6.0 12.0 0.00 0.00 0.00 53 1009.6
20260905030038 65 310 6.0 12.0 0.00 0.00 0.00 53 1009.7
20260905024533 65 309 6.0 12.0 0.00 0.00 0.00 54 1009.8
20260905023027 66 281 5.0 12.0 0.00 0.00 0.00 57 1009.7
20260905021522 66 338 6.0 11.0 0.00 0.00 0.00 59 1009.7
20260905020019 66 355 8.0 15.0 0.00 0.00 0.00 60 1009.8